QPF
0.00 0.00 0.00 0.00 0.00 0.00 0.00 0.00 0.00 0.00 0.00 0.00 0.00 0.00 0.00 0.00 0.00 0.00 0.00 0.00 0.00 0.00 0.00 0.00 0.00 0.00 0.00 0.00 0.00 0.00 0.00 0.00 0.00 0.00 0.00 0.00 0.00 0.00 0.00 0.00 0.00 0.00 0.00 0.00 0.00 0.00 0.00 0.00 0.00
0.00 0.00 0.00 0.00 0.00 0.00 0.00 0.00 0.00 0.00 0.00 0.00 0.00 0.00 0.00 0.00 0.00 0.00 0.00 0.00 0.00 0.00 0.00 0.00 0.00 0.00 0.00 0.00 0.00 0.00 0.00 0.00 0.00 0.00 0.00 0.00 0.00 0.00 0.00 0.00 0.00 0.00 0.00 0.00 0.00 0.00 0.00 0.00 0.00
0.00 0.00 0.00 0.00 0.00 0.00 0.00 0.00 0.00 0.00 0.00 0.00 0.00 0.00 0.00 0.00 0.00 0.00 0.00 0.00 0.00 0.00 0.00 0.00 0.00 0.00 0.00 0.00 0.00 0.00 0.00 0.00 0.00 0.00 0.00 0.00 0.00 0.00 0.00 0.00 0.00 0.00 0.00 0.00 0.00 0.00 0.00 0.00 0.00
0.00 0.00 0.00 0.00 0.00 0.00 0.00 0.00 0.00 0.00 0.00 0.00 0.00 0.00 0.00 0.00 0.00 0.00 0.00 0.00 0.00 0.00 0.00 0.00 0.00 0.00 0.00 0.00 0.00 0.00 0.00 0.00 0.00 0.00 0.00 0.00 0.00 0.00 0.00 0.00 0.00 0.00 0.00 0.00 0.00 0.00 0.00 0.00 0.00
0.00 0.00 0.00 0.00 0.00 0.00 0.00 0.00 0.00 0.00 0.00 0.00 0.00 0.00 0.00 0.00 0.00 0.00 0.00 0.00 0.00 0.00 0.00 0.00 0.00 0.00 0.00 0.00 0.00 0.00 0.00 0.00 0.00 0.00 0.00 0.00 0.00 0.00 0.00 0.00 0.00 0.00 0.00 0.00 0.00 0.00 0.00 0.00 0.00
0.00 0.00 0.00 0.00 0.00 0.00 0.00 0.00 0.00 0.00 0.00 0.00 0.00 0.00 0.00 0.00 0.00 0.00 0.00 0.00 0.00 0.00 0.00 0.00 0.00 0.00 0.00 0.00 0.00 0.00 0.00 0.00 0.00 0.00 0.00 0.00 0.00 0.00 0.00 0.00 0.00 0.00 0.00 0.00 0.00 0.00 0.00 0.00 0.00
0.00 0.00 0.00 0.00 0.00 0.00 0.00 0.00 0.00 0.00 0.00 0.00 0.00 0.00 0.00 0.00 0.00 0.00 0.00 0.00 0.00 0.00 0.00 0.00 0.00 0.00 0.00 0.00 0.00 0.00 0.00 0.00 0.00 0.00 0.00 0.00 0.00 0.00 0.00 0.00 0.00 0.00 0.00 0.00 0.00 0.00 0.00 0.00 0.00
0.00 0.00 0.00 0.00 0.00 0.00 0.00 0.00 0.00 0.00 0.00 0.00 0.00 0.00 0.00 0.00 0.00 0.00 0.00 0.00 0.00 0.00 0.00 0.00 0.00 0.00 0.00 0.00 0.00 0.00 0.00 0.00 0.00 0.00 0.00 0.00 0.00 0.00 0.00 0.00 0.00 0.00 0.00 0.00 0.00 0.00 0.00 0.00 0.00
0.00 0.00 0.00 0.00 0.00 0.00 0.00 0.00 0.00 0.00 0.00 0.00 0.00 0.00 0.00 0.00 0.00 0.00 0.00 0.00 0.00 0.00 0.00 0.00 0.00 0.00 0.00 0.00 0.00 0.00 0.00 0.00 0.00 0.00 0.00 0.00 0.00 0.00 0.00 0.00 0.00 0.00 0.00 0.00 0.00 0.00 0.00 0.00 0.00
0.00 0.00 0.00 0.00 0.00 0.00 0.00 0.00 0.00 0.00 0.00 0.00 0.00 0.00 0.00 0.00 0.00 0.00 0.00 0.00 0.00 0.00 0.00 0.00 0.00 0.00 0.00 0.00 0.00 0.01 0.00 0.00 0.00 0.00 0.00 0.00 0.00 0.00 0.00 0.00 0.00 0.00 0.00 0.00 0.00 0.00 0.00 0.00 0.00
0.00 0.00 0.00 0.00 0.00 0.00 0.00 0.00 0.00 0.00 0.00 0.00 0.00 0.00 0.00 0.00 0.00 0.00 0.00 0.00 0.00 0.00 0.00 0.00 0.00 0.00 0.00 0.00 0.00 0.00 0.01 0.00 0.00 0.00 0.00 0.00 0.00 0.00 0.00 0.00 0.00 0.00 0.00 0.00 0.00 0.00 0.00 0.00 0.00
0.00 0.00 0.00 0.00 0.00 0.00 0.00 0.00 0.00 0.00 0.00 0.00 0.00 0.00 0.00 0.00 0.00 0.00 0.00 0.00 0.00 0.00 0.00 0.00 0.00 0.00 0.00 0.00 0.00 0.00 0.01 0.00 0.00 0.00 0.00 0.00 0.00 0.00 0.00 0.00 0.00 0.00 0.00 0.00 0.00 0.00 0.00 0.00 0.00
0.00 0.00 0.00 0.00 0.00 0.00 0.00 0.00 0.00 0.00 0.00 0.00 0.00 0.00 0.00 0.00 0.00 0.00 0.00 0.00 0.00 0.00 0.00 0.00 0.00 0.00 0.00 0.00 0.00 0.00 0.00 0.00 0.00 0.00 0.00 0.00 0.00 0.00 0.00 0.00 0.00 0.00 0.00 0.00 0.00 0.00 0.00 0.00 0.00
0.00 0.00 0.00 0.00 0.00 0.00 0.00 0.00 0.00 0.00 0.00 0.00 0.00 0.00 0.00 0.00 0.00 0.00 0.00 0.00 0.00 0.00 0.00 0.00 0.00 0.00 0.00 0.00 0.00 0.00 0.00 0.00 0.00 0.01 0.00 0.01 0.01 0.00 0.00 0.00 0.00 0.00 0.00 0.00 0.00 0.00 0.00 0.00 0.00
0.00 0.00 0.00 0.00 0.00 0.00 0.00 0.00 0.00 0.00 0.00 0.00 0.00 0.00 0.00 0.00 0.00 0.00 0.00 0.00 0.00 0.00 0.00 0.00 0.00 0.00 0.00 0.00 0.00 0.00 0.00 0.00 0.00 0.00 0.02 0.00 0.03 0.00 0.00 0.00 0.00 0.00 0.00 0.00 0.00 0.00 0.00 0.00 0.00
0.00 0.00 0.00 0.00 0.00 0.00 0.00 0.00 0.00 0.00 0.00 0.00 0.00 0.00 0.00 0.00 0.00 0.00 0.00 0.00 0.00 0.00 0.00 0.00 0.00 0.00 0.00 0.00 0.00 0.00 0.00 0.00 0.00 0.00 0.02 0.02 0.04 0.02 0.01 0.00 0.00 0.00 0.00 0.00 0.00 0.00 0.00 0.00 0.00
0.00 0.00 0.00 0.00 0.00 0.00 0.00 0.00 0.00 0.00 0.00 0.00 0.00 0.00 0.00 0.00 0.00 0.00 0.00 0.00 0.00 0.00 0.00 0.00 0.00 0.01 0.02 0.00 0.00 0.00 0.00 0.00 0.00 0.01 0.04 0.03 0.03 0.06 0.01 0.00 0.00 0.00 0.00 0.00 0.00 0.00 0.00 0.00 0.00
0.00 0.00 0.00 0.00 0.00 0.00 0.00 0.00 0.00 0.00 0.00 0.00 0.00 0.00 0.00 0.00 0.00 0.00 0.00 0.00 0.00 0.00 0.00 0.00 0.00 0.00 0.09 0.05 0.01 0.01 0.00 0.03 0.00 0.00 0.00 0.04 0.03 0.01 0.00 0.00 0.00 0.00 0.00 0.00 0.00 0.00 0.00 0.00 0.00
0.00 0.00 0.00 0.00 0.00 0.00 0.00 0.00 0.00 0.00 0.00 0.00 0.00 0.00 0.00 0.00 0.00 0.00 0.00 0.00 0.00 0.00 0.00 0.00 0.00 0.00 0.09 0.19 0.08 0.07 0.00 0.10 0.03 0.00 0.00 0.00 0.02 0.01 0.00 0.00 0.00 0.00 0.00 0.00 0.00 0.00 0.00 0.00 0.00
0.00 0.00 0.00 0.00 0.00 0.00 0.00 0.00 0.00 0.00 0.00 0.00 0.00 0.00 0.00 0.00 0.00 0.00 0.00 0.00 0.00 0.00 0.00 0.00 0.00 0.00 0.01 0.08 0.05 0.05 0.00 0.00 0.01 0.00 0.00 0.00 0.00 0.02 0.00 0.00 0.00 0.00 0.00 0.00 0.00 0.00 0.00 0.00 0.00
0.00 0.00 0.00 0.00 0.00 0.00 0.00 0.00 0.00 0.00 0.00 0.00 0.01 0.00 0.00 0.00 0.00 0.00 0.00 0.00 0.00 0.00 0.00 0.00 0.00 0.00 0.00 0.01 0.23 0.43 0.35 0.15 0.27 0.15 0.02 0.00 0.00 0.02 0.01 0.00 0.00 0.00 0.00 0.00 0.00 0.00 0.00 0.00 0.00
0.00 0.00 0.00 0.00 0.00 0.00 0.00 0.00 0.01 0.00 0.00 0.00 0.03 0.02 0.00 0.00 0.01 0.01 0.02 0.02 0.00 0.00 0.00 0.01 0.00 0.00 0.00 0.00 0.10 0.17 0.29 0.17 0.15 0.16 0.16 0.03 0.00 0.00 0.00 0.00 0.00 0.00 0.00 0.00 0.00 0.00 0.00 0.00 0.00
0.00 0.00 0.00 0.00 0.00 0.00 0.00 0.01 0.06 0.00 0.00 0.00 0.00 0.00 0.00 0.00 0.00 0.01 0.01 0.02 0.02 0.01 0.00 0.00 0.00 0.02 0.00 0.00 0.01 0.05 0.29 0.18 0.07 0.14 0.20 0.11 0.01 0.00 0.00 0.00 0.08 0.03 0.00 0.00 0.00 0.00 0.00 0.00 0.00
0.00 0.00 0.00 0.00 0.01 0.02 0.05 0.11 0.27 0.06 0.05 0.02 0.01 0.00 0.01 0.01 0.00 0.00 0.01 0.01 0.03 0.03 0.00 0.00 0.00 0.01 0.01 0.00 0.02 0.13 0.12 0.16 0.19 0.10 0.12 0.24 0.11 0.00 0.00 0.00 0.01 0.01 0.00 0.00 0.01 0.03 0.04 0.02 0.00
0.01 0.01 0.01 0.01 0.03 0.05 0.02 0.08 0.18 0.10 0.05 0.05 0.03 0.03 0.02 0.04 0.05 0.03 0.01 0.01 0.01 0.02 0.02 0.01 0.01 0.01 0.01 0.02 0.05 0.11 0.07 0.12 0.11 0.11 0.10 0.09 0.20 0.05 0.00 0.01 0.00 0.00 0.04 0.01 0.01 0.03 0.05 0.04 0.03
0.02 0.02 0.05 0.03 0.00 0.02 0.07 0.13 0.19 0.06 0.01 0.01 0.01 0.03 0.04 0.08 0.12 0.09 0.07 0.05 0.04 0.03 0.07 0.05 0.03 0.04 0.02 0.04 0.11 0.25 0.26 0.29 0.39 0.41 0.26 0.19 0.10 0.07 0.00 0.00 0.00 0.03 0.07 0.04 0.04 0.05 0.04 0.03 0.02
0.01 0.01 0.00 0.04 0.01 0.18 0.14 0.17 0.03 0.00 0.00 0.00 0.01 0.02 0.06 0.09 0.14 0.14 0.10 0.12 0.17 0.18 0.12 0.13 0.09 0.08 0.09 0.04 0.09 0.26 0.44 0.35 0.29 0.36 0.58 0.57 0.43 0.24 0.05 0.00 0.00 0.07 0.10 0.06 0.05 0.03 0.04 0.03 0.01
0.00 0.01 0.01 0.02 0.05 0.19 0.06 0.03 0.08 0.03 0.02 0.01 0.01 0.02 0.04 0.06 0.10 0.11 0.11 0.16 0.23 0.28 0.33 0.19 0.14 0.09 0.08 0.13 0.05 0.08 0.25 0.40 0.22 0.36 0.40 0.56 0.73 0.93 0.42 0.08 0.00 0.01 0.09 0.02 0.02 0.02 0.03 0.03 0.02
0.02 0.03 0.03 0.04 0.03 0.17 0.06 0.09 0.12 0.06 0.02 0.01 0.01 0.01 0.03 0.05 0.07 0.08 0.10 0.09 0.12 0.30 0.41 0.29 0.14 0.05 0.04 0.18 0.24 0.05 0.03 0.24 0.23 0.24 0.50 0.35 0.48 0.75 0.89 0.44 0.16 0.08 0.01 0.03 0.02 0.02 0.04 0.03 0.03
0.01 0.04 0.08 0.11 0.15 0.05 0.01 0.11 0.06 0.03 0.01 0.00 0.00 0.00 0.00 0.02 0.04 0.04 0.03 0.03 0.06 0.23 0.34 0.28 0.15 0.07 0.04 0.09 0.31 0.14 0.02 0.01 0.07 0.07 0.15 0.23 0.15 0.25 0.36 0.44 0.27 0.11 0.04 0.03 0.01 0.02 0.03 0.02 0.02
MSLP
1011.13 1009.89 1009.46 1008.56 1007.71 1005.59 1003.46 1001.63 999.92 998.77 998.79 999.39 1000.46 1001.25 1001.50 1001.23 1000.85 1001.78 1002.31 1002.93 1003.88 1005.43 1006.47 1007.31 1007.99 1008.52 1009.08 1009.70 1010.08 1010.42 1010.66 1011.08 1011.65 1012.15 1012.58 1013.07 1013.44 1013.84 1014.37 1014.87 1015.05 1015.51 1016.03 1016.21 1016.50 1016.68 1016.98 1017.46 1017.49
1011.11 1009.82 1008.49 1007.77 1006.50 1004.60 1002.53 1000.71 999.73 999.85 1000.05 1000.57 1001.14 1001.53 1001.61 1001.33 1001.01 1001.49 1002.16 1003.07 1003.60 1005.03 1006.29 1007.17 1008.11 1008.63 1009.09 1009.69 1010.31 1010.51 1010.72 1011.00 1011.60 1012.21 1012.65 1013.09 1013.68 1014.16 1014.66 1015.11 1015.31 1015.72 1016.19 1016.54 1016.84 1017.05 1017.38 1017.81 1017.93
1011.09 1009.72 1008.76 1006.84 1005.59 1004.17 1002.76 1000.88 999.70 999.95 1000.47 1001.05 1001.27 1001.31 1001.42 1001.38 1001.46 1001.93 1002.78 1003.34 1003.71 1004.72 1005.82 1006.82 1008.00 1008.59 1009.10 1009.69 1010.17 1010.78 1011.01 1011.33 1011.67 1012.24 1012.98 1013.20 1013.70 1014.27 1014.97 1015.43 1015.70 1015.97 1016.37 1016.71 1017.15 1017.42 1017.80 1018.04 1018.26
1009.83 1008.52 1008.21 1006.88 1005.10 1003.68 1002.34 1001.43 1000.44 1000.01 1000.14 1000.83 1001.36 1001.63 1001.73 1001.49 1001.86 1002.22 1002.68 1003.39 1003.84 1004.43 1005.35 1006.94 1007.87 1008.44 1008.86 1009.68 1010.28 1010.81 1011.14 1011.42 1011.79 1012.42 1013.07 1013.59 1013.80 1014.14 1014.99 1015.58 1015.90 1016.18 1016.57 1016.92 1017.37 1017.89 1018.13 1018.32 1018.51
1009.11 1008.52 1007.57 1006.30 1004.87 1003.58 1002.55 1001.65 1001.26 1000.67 1000.51 1000.67 1001.29 1001.50 1001.83 1001.83 1002.22 1002.50 1002.68 1003.35 1003.68 1004.25 1005.22 1006.65 1007.66 1008.40 1008.83 1009.42 1010.23 1010.71 1011.24 1011.50 1011.78 1012.48 1013.15 1013.77 1014.19 1014.47 1015.03 1015.85 1016.07 1016.33 1016.73 1017.23 1017.55 1018.16 1018.45 1018.56 1018.64
1009.31 1008.25 1007.41 1006.15 1004.59 1003.12 1001.85 1001.03 1000.61 1000.61 1000.93 1001.37 1001.69 1002.07 1001.96 1001.74 1001.99 1002.57 1003.24 1003.62 1004.09 1004.87 1005.68 1006.73 1007.79 1008.33 1008.97 1009.27 1009.81 1010.55 1011.21 1011.51 1011.91 1012.33 1013.05 1013.70 1014.40 1014.77 1015.07 1015.81 1016.38 1016.58 1016.96 1017.47 1017.92 1018.29 1018.66 1018.85 1018.85
1009.33 1008.69 1007.47 1006.14 1004.58 1003.35 1002.46 1001.69 1000.97 1000.89 1001.00 1001.46 1001.99 1002.43 1002.57 1002.32 1002.25 1002.62 1003.30 1003.90 1004.22 1004.74 1005.61 1006.61 1007.73 1008.59 1009.04 1009.36 1009.64 1010.18 1010.96 1011.50 1011.85 1012.18 1012.90 1013.49 1014.22 1014.98 1015.24 1015.78 1016.51 1016.84 1017.16 1017.57 1018.14 1018.52 1018.78 1019.04 1019.19
1009.55 1008.75 1007.05 1006.08 1004.67 1003.20 1002.49 1001.61 1001.15 1001.06 1000.76 1001.59 1002.70 1002.80 1003.13 1002.93 1003.10 1003.16 1003.55 1004.09 1004.71 1005.00 1005.54 1006.39 1007.25 1008.24 1008.86 1009.33 1009.56 1009.92 1010.74 1011.34 1011.86 1012.30 1012.79 1013.52 1014.04 1014.81 1015.34 1015.89 1016.32 1017.01 1017.41 1017.76 1018.24 1018.63 1018.97 1019.23 1019.42
1009.07 1008.18 1006.41 1005.46 1004.56 1003.11 1002.40 1001.48 1001.10 1000.80 1001.05 1001.89 1002.77 1003.14 1003.32 1003.16 1003.42 1003.61 1003.59 1003.82 1004.53 1005.15 1005.60 1006.13 1006.96 1007.73 1008.48 1008.91 1009.50 1010.11 1010.61 1011.25 1011.91 1012.38 1012.83 1013.70 1014.11 1014.80 1015.48 1015.85 1016.40 1017.01 1017.63 1017.97 1018.33 1018.76 1019.12 1019.45 1019.51
1008.78 1007.25 1005.92 1005.28 1004.47 1003.47 1002.90 1002.51 1002.24 1001.77 1001.37 1001.68 1002.33 1002.81 1003.03 1003.63 1003.58 1003.42 1003.37 1003.31 1003.88 1004.64 1005.26 1005.93 1006.72 1007.24 1007.72 1008.42 1009.07 1009.82 1010.51 1011.11 1011.76 1012.15 1012.80 1013.22 1013.81 1014.44 1015.08 1015.75 1016.34 1016.96 1017.79 1018.17 1018.38 1018.81 1019.26 1019.51 1019.67
1008.69 1007.11 1006.42 1005.34 1004.67 1004.18 1003.55 1003.11 1003.02 1002.49 1001.73 1002.05 1001.83 1001.87 1002.32 1003.06 1002.93 1002.87 1002.93 1002.71 1002.74 1003.46 1004.31 1005.18 1005.94 1006.62 1007.05 1007.72 1008.39 1009.05 1009.75 1010.46 1011.16 1011.60 1012.04 1012.62 1013.26 1014.12 1014.70 1015.73 1016.37 1017.04 1017.77 1018.29 1018.53 1018.99 1019.20 1019.30 1019.48
1008.24 1007.35 1006.50 1005.69 1005.13 1004.49 1003.75 1003.17 1002.76 1002.65 1002.18 1002.29 1002.04 1001.95 1001.91 1001.94 1002.26 1002.18 1002.49 1002.42 1002.25 1002.49 1003.22 1004.04 1004.97 1005.81 1006.44 1006.94 1007.65 1008.10 1008.78 1009.29 1010.08 1010.68 1011.32 1011.83 1012.50 1013.42 1014.02 1014.93 1015.83 1016.56 1017.34 1017.90 1018.20 1018.67 1018.80 1019.08 1019.12
1008.80 1007.92 1007.12 1006.51 1006.03 1005.25 1004.71 1003.53 1002.57 1002.57 1002.31 1002.40 1002.14 1001.86 1001.55 1001.64 1001.74 1001.81 1002.02 1002.19 1002.07 1001.90 1002.02 1002.61 1003.47 1004.53 1005.12 1005.81 1006.57 1007.04 1007.65 1008.38 1008.84 1009.71 1010.39 1010.84 1011.58 1012.58 1013.16 1014.28 1014.98 1015.76 1016.70 1017.38 1017.72 1018.17 1018.34 1018.76 1018.82
1009.35 1008.53 1007.69 1006.91 1006.09 1005.77 1005.15 1003.28 1003.49 1002.59 1002.87 1002.28 1002.01 1001.66 1001.30 1001.35 1001.46 1001.59 1001.85 1001.88 1002.01 1001.80 1001.53 1001.69 1002.36 1003.20 1004.07 1004.86 1005.64 1006.25 1006.77 1007.42 1007.99 1008.63 1009.39 1009.89 1010.73 1011.85 1012.69 1013.57 1014.25 1014.93 1015.96 1016.75 1017.12 1017.57 1017.85 1018.19 1018.46
1009.65 1008.54 1007.74 1006.76 1005.95 1005.49 1005.11 1001.88 1002.19 1002.56 1002.23 1001.29 1000.86 1000.45 1000.23 1000.33 1000.48 1000.67 1000.87 1001.00 1001.12 1001.22 1001.03 1000.89 1001.60 1002.28 1003.11 1003.92 1005.05 1005.77 1006.09 1006.77 1007.38 1007.85 1008.56 1009.28 1010.16 1011.02 1011.73 1012.84 1013.61 1014.09 1015.22 1016.13 1016.69 1017.21 1017.38 1017.73 1018.05
1010.13 1008.97 1007.11 1006.07 1004.86 1004.28 1004.00 999.82 1002.30 1002.05 1001.69 1001.11 1000.86 1000.54 1000.10 999.92 999.77 999.91 999.91 999.79 999.90 1000.24 1000.20 1000.21 1000.27 1001.45 1002.27 1003.12 1004.11 1005.40 1005.70 1006.18 1006.68 1007.17 1008.08 1008.58 1009.42 1010.30 1011.13 1012.26 1012.70 1013.41 1014.53 1015.43 1016.27 1016.67 1017.05 1017.48 1018.00
1009.69 1007.92 1006.96 1005.59 1004.93 1004.82 1005.22 1002.35 1003.82 1003.60 1002.97 1002.43 1002.28 1001.74 1001.37 1000.78 1000.35 1000.02 999.72 999.64 999.63 999.34 999.43 999.58 999.76 1000.03 1001.36 1002.46 1003.31 1004.42 1004.94 1005.17 1005.75 1006.29 1007.13 1008.10 1008.78 1009.67 1010.42 1011.57 1011.87 1012.81 1013.62 1014.75 1015.78 1016.06 1016.59 1017.06 1017.76
1009.75 1008.95 1008.28 1007.66 1007.47 1006.89 1006.33 1004.68 1005.04 1005.46 1005.07 1004.64 1004.00 1003.39 1002.84 1002.21 1001.53 1001.04 1000.42 999.92 999.50 999.20 999.21 998.95 998.96 999.38 1000.25 1001.58 1002.75 1003.53 1004.39 1004.47 1004.84 1005.15 1006.05 1006.97 1007.85 1008.70 1009.67 1010.74 1011.30 1012.03 1013.07 1013.96 1015.02 1015.49 1016.12 1016.69 1017.25
1011.60 1010.96 1009.82 1009.59 1009.02 1007.97 1007.40 1006.43 1006.35 1006.82 1006.77 1006.37 1005.73 1005.14 1004.48 1004.11 1002.38 1002.13 1001.46 1000.38 1000.04 999.28 999.25 998.90 998.73 998.55 999.47 1000.72 1001.80 1002.77 1002.99 1003.78 1003.61 1004.34 1005.07 1005.92 1006.88 1007.76 1008.89 1009.84 1010.89 1011.46 1012.32 1013.01 1013.93 1014.95 1015.72 1016.48 1016.80
1012.85 1011.93 1010.78 1009.55 1009.39 1009.21 1008.35 1007.68 1007.63 1007.64 1008.99 1009.75 1009.88 1009.38 1008.86 1007.50 1006.07 1005.40 1004.66 1003.23 1001.42 1000.32 999.96 999.48 999.49 998.31 998.11 999.28 1000.07 1001.39 1002.03 1002.59 1002.66 1003.23 1004.29 1004.94 1006.08 1006.89 1007.98 1008.79 1009.97 1010.77 1011.69 1012.73 1013.59 1014.21 1015.28 1016.18 1016.34
1012.94 1012.13 1011.24 1010.59 1010.09 1009.88 1008.96 1008.10 1008.29 1009.61 1011.55 1011.81 1012.18 1012.56 1012.28 1012.15 1010.07 1008.33 1007.20 1006.46 1005.33 1004.42 1003.63 1001.65 999.21 998.28 997.35 997.94 998.87 1000.28 1001.32 1001.48 1002.01 1002.30 1003.12 1004.23 1005.22 1006.21 1007.23 1007.99 1009.00 1009.99 1010.96 1011.71 1012.67 1013.53 1014.09 1015.01 1015.82
1013.19 1013.05 1012.14 1011.22 1010.62 1009.55 1009.82 1010.07 1012.39 1013.06 1014.00 1014.32 1014.97 1015.06 1014.65 1014.00 1012.92 1011.29 1009.54 1007.66 1007.09 1006.53 1005.38 1003.12 1001.11 999.05 997.37 996.78 997.68 998.76 999.97 999.69 1000.88 1001.79 1002.35 1002.75 1004.27 1005.06 1006.09 1006.97 1007.93 1009.12 1010.01 1010.88 1011.78 1012.85 1013.56 1013.97 1015.01
1013.68 1012.69 1012.14 1011.25 1010.93 1010.62 1009.93 1011.70 1015.43 1015.48 1015.37 1016.29 1017.12 1017.24 1017.31 1016.59 1015.56 1014.24 1013.14 1011.96 1010.22 1008.77 1007.06 1004.58 1003.33 1000.19 999.04 998.24 996.15 997.26 999.02 999.72 1000.57 1001.07 1001.62 1002.24 1003.36 1004.18 1004.79 1005.75 1006.91 1008.06 1009.34 1009.92 1010.91 1012.02 1012.86 1013.67 1014.15
1013.85 1012.92 1011.33 1010.72 1010.82 1011.82 1013.05 1013.62 1016.88 1017.80 1019.02 1019.43 1019.33 1018.75 1018.36 1017.52 1016.82 1015.64 1014.16 1012.95 1011.58 1010.33 1007.97 1005.80 1003.83 1002.75 1001.25 999.99 997.40 996.95 997.69 999.07 999.89 1000.17 1000.65 1001.61 1001.58 1003.42 1003.73 1004.84 1005.67 1006.91 1008.09 1009.26 1010.07 1011.02 1011.84 1012.73 1013.58
1014.61 1013.79 1012.36 1011.61 1011.73 1013.11 1014.57 1016.11 1019.65 1020.27 1020.37 1020.72 1020.32 1019.53 1018.97 1018.31 1017.27 1015.96 1014.80 1013.57 1012.04 1010.53 1008.94 1006.52 1005.66 1004.00 1002.02 1000.54 998.11 998.71 996.79 997.71 998.83 999.57 999.69 1000.81 1001.34 1002.21 1003.09 1003.96 1004.69 1005.92 1007.20 1008.18 1009.31 1010.37 1011.31 1012.02 1012.84
1015.61 1015.51 1015.54 1014.53 1014.24 1015.05 1016.07 1018.89 1020.64 1021.16 1021.63 1021.37 1021.08 1020.24 1019.40 1018.47 1018.13 1017.28 1016.12 1014.81 1013.55 1012.09 1009.91 1008.70 1007.05 1005.58 1004.54 1002.99 999.35 998.91 998.02 997.01 997.75 998.59 999.40 999.29 999.76 1001.12 1001.82 1002.49 1003.18 1004.63 1006.06 1007.23 1008.32 1009.55 1010.38 1011.31 1012.18
1016.69 1016.60 1016.40 1016.02 1015.80 1016.59 1019.38 1020.84 1020.50 1021.98 1022.31 1021.87 1021.04 1020.56 1020.04 1019.65 1018.82 1017.96 1016.89 1015.79 1014.46 1013.04 1011.66 1010.24 1008.13 1006.71 1006.01 1004.47 1003.19 1001.02 999.66 999.56 998.11 997.92 998.25 998.69 998.49 1000.03 1001.17 1001.91 1002.11 1003.20 1004.94 1006.41 1007.50 1008.64 1009.93 1010.76 1011.24
1018.18 1017.95 1017.04 1016.72 1016.65 1018.06 1020.10 1021.35 1023.05 1023.07 1022.97 1022.21 1021.66 1021.47 1020.93 1020.25 1019.31 1018.54 1017.88 1016.66 1015.26 1014.01 1012.55 1011.43 1010.64 1009.28 1008.58 1005.95 1004.87 1003.26 1003.03 1002.62 1001.39 1001.01 1000.30 1000.24 1000.39 997.95 999.76 1000.98 1002.09 1002.49 1003.77 1005.01 1006.41 1007.55 1008.70 1009.78 1010.46
1018.95 1018.61 1018.24 1018.23 1018.14 1018.09 1020.17 1023.14 1024.13 1024.16 1023.65 1022.92 1022.50 1021.98 1021.50 1020.71 1019.99 1019.19 1018.44 1017.46 1016.29 1015.13 1014.10 1012.44 1011.20 1010.94 1008.42 1007.09 1006.72 1006.11 1003.72 1003.45 1003.53 1003.56 1002.96 1001.84 1000.37 1000.15 998.52 999.98 1001.25 1002.29 1003.46 1004.50 1005.42 1006.30 1007.39 1008.29 1009.08
1020.44 1020.16 1019.23 1018.37 1019.40 1019.05 1020.88 1023.95 1024.40 1024.11 1023.45 1022.88 1022.15 1021.37 1020.92 1020.47 1019.82 1019.20 1018.68 1017.95 1016.59 1015.63 1014.88 1014.15 1012.56 1011.68 1009.49 1009.77 1006.59 1007.30 1007.54 1006.10 1004.82 1005.34 1004.61 1003.86 1004.07 1003.04 1002.74 1001.90 1001.61 1002.22 1002.95 1003.76 1004.44 1005.25 1005.93 1006.84 1007.60
Thickness
5782 5789 5791 5787 5757 5769 5771 5796 5833 5834 5828 5834 5825 5815 5806 5817 5806 5777 5833 5838 5829 5823 5813 5805 5798 5793 5787 5779 5774 5772 5770 5765 5759 5754 5750 5746 5743 5740 5734 5730 5729 5724 5717 5715 5712 5710 5708 5703 5705
5776 5785 5787 5773 5747 5747 5772 5816 5821 5820 5820 5821 5815 5812 5806 5800 5828 5825 5817 5835 5828 5823 5810 5803 5793 5788 5784 5777 5769 5768 5767 5764 5758 5752 5748 5745 5740 5735 5730 5726 5725 5722 5716 5712 5709 5708 5705 5701 5701
5771 5781 5760 5756 5754 5746 5762 5808 5825 5821 5820 5810 5802 5815 5808 5801 5820 5822 5821 5829 5828 5817 5811 5802 5792 5785 5780 5775 5768 5763 5761 5758 5754 5749 5742 5742 5738 5733 5726 5722 5720 5719 5715 5711 5707 5705 5703 5700 5699
5767 5772 5762 5738 5742 5768 5779 5796 5814 5816 5816 5812 5805 5785 5809 5819 5815 5822 5819 5824 5822 5811 5812 5798 5789 5783 5779 5771 5764 5759 5756 5754 5750 5744 5738 5735 5735 5733 5725 5720 5718 5716 5713 5709 5706 5702 5701 5699 5697
5766 5758 5731 5733 5745 5771 5786 5797 5799 5796 5802 5800 5799 5783 5784 5808 5815 5820 5812 5821 5814 5809 5810 5796 5787 5780 5776 5770 5761 5755 5751 5750 5747 5740 5735 5731 5729 5728 5723 5715 5715 5714 5711 5707 5705 5701 5699 5698 5697
5734 5747 5720 5719 5744 5772 5789 5801 5798 5788 5793 5790 5783 5776 5780 5808 5806 5807 5799 5811 5807 5800 5799 5791 5781 5776 5770 5768 5762 5754 5748 5746 5743 5739 5733 5729 5724 5722 5722 5715 5710 5710 5708 5705 5702 5700 5697 5696 5696
5722 5718 5711 5724 5737 5753 5771 5792 5783 5779 5775 5777 5784 5760 5775 5790 5796 5798 5801 5803 5798 5794 5792 5785 5775 5769 5764 5763 5760 5754 5747 5743 5740 5737 5732 5727 5723 5718 5718 5714 5707 5706 5706 5704 5700 5697 5697 5695 5694
5722 5717 5713 5725 5728 5738 5769 5778 5785 5776 5768 5778 5773 5750 5752 5775 5786 5785 5792 5789 5784 5783 5782 5781 5772 5764 5760 5757 5757 5753 5743 5741 5736 5733 5729 5723 5721 5717 5714 5711 5708 5702 5702 5702 5699 5696 5694 5693 5692
5728 5701 5702 5718 5724 5741 5765 5760 5777 5784 5765 5756 5757 5757 5765 5776 5776 5771 5774 5776 5776 5770 5772 5771 5769 5761 5756 5754 5751 5746 5739 5736 5732 5728 5725 5719 5716 5713 5709 5709 5706 5702 5698 5698 5697 5695 5693 5691 5691
5707 5703 5710 5731 5734 5734 5745 5743 5746 5750 5752 5747 5736 5751 5763 5761 5757 5756 5759 5762 5765 5765 5763 5763 5761 5759 5754 5749 5747 5742 5735 5731 5728 5725 5720 5717 5715 5711 5708 5707 5705 5701 5695 5695 5696 5693 5691 5689 5689
5703 5693 5713 5723 5727 5728 5725 5729 5736 5727 5727 5734 5735 5745 5745 5745 5751 5750 5754 5760 5758 5763 5763 5758 5756 5754 5752 5749 5745 5742 5736 5730 5726 5724 5722 5717 5714 5708 5707 5703 5702 5699 5695 5692 5693 5691 5689 5689 5689
5686 5703 5708 5711 5713 5711 5711 5723 5718 5723 5724 5736 5737 5739 5741 5736 5738 5745 5745 5750 5756 5757 5750 5755 5755 5749 5749 5748 5743 5744 5738 5734 5727 5726 5722 5719 5715 5709 5708 5706 5703 5700 5695 5693 5692 5691 5691 5690 5691
5675 5682 5688 5691 5690 5695 5697 5702 5713 5710 5730 5727 5729 5731 5733 5730 5731 5738 5741 5743 5748 5750 5755 5750 5750 5751 5750 5747 5744 5744 5741 5736 5730 5725 5723 5720 5717 5711 5711 5705 5705 5703 5697 5693 5693 5691 5692 5691 5692
5662 5666 5669 5677 5682 5680 5673 5697 5696 5715 5711 5711 5715 5718 5725 5722 5722 5725 5726 5732 5736 5741 5746 5748 5747 5750 5749 5745 5741 5739 5740 5736 5731 5726 5725 5722 5717 5710 5707 5705 5706 5704 5699 5693 5693 5692 5693 5693 5693
5651 5646 5657 5672 5674 5667 5669 5691 5695 5704 5705 5708 5713 5718 5721 5720 5719 5717 5721 5726 5732 5735 5740 5743 5740 5741 5744 5741 5735 5733 5736 5732 5728 5727 5723 5719 5713 5710 5707 5703 5704 5704 5700 5693 5690 5690 5692 5694 5693
5628 5637 5638 5668 5678 5677 5665 5695 5693 5702 5697 5696 5699 5700 5704 5708 5711 5712 5717 5720 5727 5730 5732 5737 5738 5737 5737 5736 5732 5725 5727 5728 5726 5724 5718 5716 5713 5709 5703 5698 5703 5701 5698 5693 5689 5690 5691 5691 5690
5628 5628 5637 5654 5670 5652 5639 5663 5663 5669 5668 5670 5669 5677 5679 5682 5687 5692 5702 5707 5711 5720 5725 5728 5729 5727 5729 5730 5726 5720 5720 5725 5723 5722 5718 5711 5711 5706 5703 5697 5702 5701 5697 5693 5687 5691 5690 5689 5687
5609 5614 5618 5612 5624 5624 5619 5632 5640 5635 5636 5632 5642 5647 5651 5653 5658 5666 5678 5688 5696 5705 5706 5718 5723 5722 5720 5719 5717 5713 5710 5715 5719 5721 5719 5713 5711 5707 5703 5697 5699 5698 5694 5693 5686 5689 5689 5688 5686
5586 5584 5586 5589 5596 5598 5598 5607 5616 5609 5604 5608 5615 5615 5615 5614 5636 5641 5651 5668 5672 5684 5689 5698 5707 5715 5704 5704 5704 5701 5704 5707 5715 5717 5718 5713 5707 5706 5702 5698 5693 5696 5692 5694 5691 5685 5683 5682 5684
5562 5562 5570 5591 5580 5572 5580 5582 5590 5585 5558 5548 5553 5551 5553 5567 5579 5582 5584 5603 5631 5651 5661 5674 5686 5698 5704 5698 5707 5701 5703 5705 5713 5715 5713 5713 5706 5704 5701 5699 5693 5695 5692 5687 5685 5687 5679 5677 5681
5549 5548 5553 5552 5561 5555 5555 5564 5552 5544 5518 5517 5510 5502 5501 5501 5519 5536 5546 5553 5570 5582 5596 5621 5660 5680 5693 5695 5702 5698 5696 5698 5698 5703 5705 5703 5701 5699 5698 5698 5695 5693 5691 5687 5688 5687 5685 5679 5679
5528 5527 5529 5531 5532 5536 5543 5525 5479 5500 5492 5484 5472 5468 5469 5471 5478 5492 5505 5518 5527 5540 5560 5592 5622 5644 5677 5689 5690 5691 5689 5693 5692 5695 5700 5695 5699 5698 5697 5698 5696 5692 5691 5687 5686 5686 5683 5681 5674
5511 5519 5515 5520 5520 5525 5534 5524 5456 5475 5469 5464 5451 5447 5443 5444 5449 5458 5469 5476 5494 5505 5526 5561 5582 5622 5643 5655 5677 5693 5685 5689 5692 5690 5691 5691 5693 5693 5698 5698 5692 5691 5687 5687 5685 5682 5678 5676 5676
5503 5503 5517 5524 5527 5512 5491 5498 5439 5439 5428 5427 5431 5432 5430 5430 5432 5439 5449 5461 5472 5485 5508 5530 5564 5588 5602 5623 5663 5681 5684 5683 5683 5685 5686 5678 5684 5687 5695 5692 5692 5691 5688 5686 5684 5683 5679 5675 5674
5485 5488 5497 5511 5518 5510 5487 5465 5416 5418 5420 5415 5420 5419 5419 5415 5414 5420 5429 5439 5454 5469 5482 5511 5528 5559 5589 5613 5648 5651 5682 5684 5680 5682 5689 5681 5681 5685 5687 5689 5691 5688 5687 5686 5683 5678 5674 5674 5671
5472 5475 5459 5466 5494 5494 5481 5429 5418 5416 5416 5415 5410 5409 5408 5406 5400 5401 5407 5416 5424 5439 5461 5477 5499 5529 5554 5578 5630 5637 5662 5679 5680 5682 5681 5689 5692 5686 5690 5691 5695 5690 5687 5685 5681 5676 5673 5669 5666
5463 5461 5471 5463 5487 5460 5431 5415 5432 5415 5404 5405 5408 5399 5397 5391 5392 5390 5393 5398 5408 5420 5438 5455 5481 5506 5530 5559 5576 5596 5631 5641 5664 5676 5676 5682 5692 5681 5680 5682 5690 5690 5682 5677 5677 5672 5666 5662 5664
5453 5460 5455 5471 5474 5445 5433 5421 5399 5396 5392 5399 5395 5391 5389 5390 5389 5386 5381 5389 5401 5411 5425 5440 5454 5476 5498 5536 5554 5572 5586 5600 5617 5631 5647 5651 5654 5671 5677 5678 5676 5679 5675 5675 5672 5670 5666 5660 5660
5435 5438 5446 5446 5452 5464 5440 5402 5389 5385 5388 5391 5386 5385 5382 5386 5385 5384 5382 5384 5391 5401 5407 5428 5446 5458 5492 5515 5529 5537 5570 5582 5585 5598 5613 5622 5641 5639 5647 5673 5670 5667 5665 5666 5667 5666 5665 5661 5660
5429 5425 5430 5459 5440 5451 5437 5397 5383 5386 5395 5398 5394 5392 5390 5391 5391 5388 5384 5383 5392 5399 5405 5412 5432 5450 5478 5485 5521 5523 5531 5555 5567 5574 5584 5594 5603 5618 5620 5634 5652 5656 5659 5660 5662 5662 5663 5661 5661